HAZ2832 ZBAD-ZSHC

Flight info

Callsign HAZ2832
Flight time 1h 30m
Altitude 35100
Route ELKUR W40 YQG W142 DALIM A593 DPX A470 IGRAT
Aircraft B77W/H-SDE1E2E3FGHIJ2J3J4J5M1RWXY/LB1D1

Departure

Time 2026-04-26 04:14
Airport Beijing Daxing International Airport (ZBAD)

Arrival

Time 2026-04-26 05:44
Airport Hangzhou Xiaoshan International Airport (ZSHC)
Time Latitude Longitude Altitude Speed Heading
2026-04-26 03:47 39.51128 116.41502 89 ft 0 kts 324°
2026-04-26 03:51 39.51127 116.41503 89 ft 0 kts 324°
2026-04-26 04:00 39.51117 116.41513 94 ft 3 kts 323°
2026-04-26 04:00 39.51100 116.41529 89 ft 3 kts 323°
2026-04-26 04:00 39.51084 116.41544 93 ft 3 kts 323°
2026-04-26 04:01 39.51068 116.41559 90 ft 3 kts 322°
2026-04-26 04:01 39.51053 116.41576 94 ft 3 kts 311°
2026-04-26 04:01 39.51041 116.41595 93 ft 3 kts 298°
2026-04-26 04:01 39.51033 116.41618 93 ft 3 kts 285°
2026-04-26 04:02 39.51029 116.41643 91 ft 3 kts 276°
2026-04-26 04:02 39.51027 116.41669 89 ft 3 kts 277°
2026-04-26 04:02 39.51025 116.41688 90 ft 1 kts 285°
2026-04-26 04:02 39.51025 116.41689 90 ft 0 kts 285°
2026-04-26 04:04 39.51028 116.41673 91 ft 7 kts 285°
2026-04-26 04:04 39.51067 116.41621 94 ft 11 kts 352°
2026-04-26 04:04 39.51139 116.41740 93 ft 18 kts 72°
2026-04-26 04:05 39.51156 116.41849 91 ft 18 kts 83°
2026-04-26 04:05 39.51168 116.41977 91 ft 8 kts 83°
2026-04-26 04:05 39.51174 116.42044 90 ft 7 kts 83°
2026-04-26 04:05 39.51180 116.42102 94 ft 6 kts 82°
2026-04-26 04:06 39.51193 116.42145 91 ft 5 kts 48°
2026-04-26 04:06 39.51227 116.42160 92 ft 5 kts
2026-04-26 04:06 39.51265 116.42154 93 ft 6 kts 352°
2026-04-26 04:06 39.51305 116.42148 93 ft 6 kts 353°
2026-04-26 04:07 39.51347 116.42141 91 ft 6 kts 353°
2026-04-26 04:07 39.51389 116.42143 94 ft 6 kts 17°
2026-04-26 04:07 39.51414 116.42185 93 ft 6 kts 76°
2026-04-26 04:07 39.51419 116.42241 92 ft 6 kts 83°
2026-04-26 04:08 39.51425 116.42298 94 ft 6 kts 83°
2026-04-26 04:08 39.51430 116.42354 91 ft 6 kts 83°
2026-04-26 04:08 39.51436 116.42411 93 ft 6 kts 83°
2026-04-26 04:08 39.51441 116.42467 93 ft 6 kts 83°
2026-04-26 04:09 39.51446 116.42524 91 ft 6 kts 83°
2026-04-26 04:09 39.51451 116.42581 92 ft 6 kts 83°
2026-04-26 04:09 39.51457 116.42638 91 ft 6 kts 83°
2026-04-26 04:09 39.51462 116.42695 90 ft 6 kts 83°
2026-04-26 04:10 39.51468 116.42752 92 ft 6 kts 83°
2026-04-26 04:10 39.51473 116.42809 90 ft 6 kts 83°
2026-04-26 04:10 39.51479 116.42865 93 ft 6 kts 83°
2026-04-26 04:10 39.51484 116.42922 94 ft 6 kts 83°
2026-04-26 04:11 39.51489 116.42979 91 ft 6 kts 83°
2026-04-26 04:11 39.51495 116.43036 91 ft 6 kts 82°
2026-04-26 04:11 39.51509 116.43089 94 ft 6 kts 51°
2026-04-26 04:11 39.51549 116.43112 96 ft 4 kts 12°
2026-04-26 04:12 39.51555 116.43114 97 ft 3 kts 12°
2026-04-26 04:13 39.51589 116.43125 99 ft 7 kts 17°
2026-04-26 04:13 39.51626 116.43176 103 ft 10 kts 58°
2026-04-26 04:13 39.51642 116.43296 103 ft 18 kts 103°
2026-04-26 04:13 39.51593 116.43569 103 ft 61 kts 103°
2026-04-26 04:14 39.51432 116.44458 102 ft 139 kts 103°
2026-04-26 04:14 39.51180 116.45900 432 ft 169 kts 101°
2026-04-26 04:14 39.50908 116.47359 1352 ft 160 kts 99°
2026-04-26 04:14 39.50648 116.48771 2253 ft 163 kts 99°
2026-04-26 04:15 39.50383 116.50219 2979 ft 167 kts 99°
2026-04-26 04:15 39.50113 116.51706 3624 ft 176 kts 98°
2026-04-26 04:15 39.49815 116.53375 3918 ft 206 kts 98°
2026-04-26 04:15 39.49471 116.55333 4138 ft 240 kts 99°
2026-04-26 04:16 39.49085 116.57513 4777 ft 255 kts 99°
2026-04-26 04:16 39.48677 116.59785 5567 ft 264 kts 98°
2026-04-26 04:16 39.48264 116.62110 6394 ft 272 kts 98°
2026-04-26 04:16 39.47842 116.64531 7161 ft 280 kts 98°
2026-04-26 04:17 39.47461 116.67051 7890 ft 290 kts 97°
2026-04-26 04:17 39.47087 116.69656 8624 ft 299 kts 98°
2026-04-26 04:17 39.46695 116.72336 9391 ft 307 kts 100°
2026-04-26 04:17 39.46245 116.75053 10116 ft 311 kts 109°
2026-04-26 04:18 39.45137 116.77509 10499 ft 329 kts 137°
2026-04-26 04:18 39.43170 116.79156 10708 ft 347 kts 160°
2026-04-26 04:18 39.40821 116.80296 10926 ft 374 kts 162°
2026-04-26 04:18 39.38340 116.81491 11630 ft 386 kts 162°
2026-04-26 04:19 39.35810 116.82742 12656 ft 393 kts 161°
2026-04-26 04:19 39.33243 116.84040 13778 ft 399 kts 161°
2026-04-26 04:19 39.30644 116.85359 14758 ft 404 kts 161°
2026-04-26 04:19 39.28012 116.86686 15757 ft 409 kts 161°
2026-04-26 04:20 39.25344 116.88031 16750 ft 414 kts 161°
2026-04-26 04:20 39.22644 116.89396 17715 ft 420 kts 161°
2026-04-26 04:20 39.19908 116.90781 18604 ft 425 kts 161°
2026-04-26 04:20 39.17143 116.92176 19414 ft 431 kts 162°
2026-04-26 04:21 39.14429 116.93543 20184 ft 436 kts 162°
2026-04-26 04:21 39.11584 116.94974 20957 ft 442 kts 163°
2026-04-26 04:21 39.08701 116.96424 21715 ft 448 kts 163°
2026-04-26 04:21 39.05783 116.97890 22460 ft 454 kts 163°
2026-04-26 04:22 39.02822 116.99377 23185 ft 459 kts 164°
2026-04-26 04:22 38.99826 117.00881 23835 ft 465 kts 164°
2026-04-26 04:22 38.96802 117.02399 24441 ft 470 kts 164°
2026-04-26 04:22 38.93743 117.03934 25065 ft 473 kts 164°
2026-04-26 04:23 38.90660 117.05426 25637 ft 471 kts 168°
2026-04-26 04:23 38.87453 117.06071 26017 ft 465 kts 187°
2026-04-26 04:23 38.84314 117.05382 26587 ft 454 kts 205°
2026-04-26 04:23 38.81526 117.03597 27230 ft 444 kts 219°
2026-04-26 04:24 38.79109 117.01174 27815 ft 441 kts 227°
2026-04-26 04:24 38.77125 116.98203 28283 ft 437 kts 242°
2026-04-26 04:24 38.75685 116.94783 28677 ft 439 kts 246°
2026-04-26 04:24 38.74300 116.91272 29121 ft 443 kts 246°
2026-04-26 04:25 38.72894 116.87745 29615 ft 446 kts 246°
2026-04-26 04:25 38.71454 116.84221 30133 ft 447 kts 245°
2026-04-26 04:25 38.69994 116.80721 30710 ft 445 kts 245°
2026-04-26 04:25 38.68531 116.77250 31310 ft 442 kts 245°
2026-04-26 04:26 38.67074 116.73798 31894 ft 439 kts 245°
2026-04-26 04:26 38.65314 116.70589 32225 ft 449 kts 231°
2026-04-26 04:26 38.62831 116.68079 32633 ft 462 kts 217°
2026-04-26 04:26 38.59925 116.66277 33148 ft 470 kts 206°
2026-04-26 04:27 38.56699 116.65356 33582 ft 482 kts 192°
2026-04-26 04:27 38.53338 116.65007 33935 ft 486 kts 190°
2026-04-26 04:27 38.49962 116.64744 34271 ft 487 kts 190°
2026-04-26 04:27 38.46581 116.64460 34646 ft 486 kts 191°
2026-04-26 04:28 38.43213 116.64124 34993 ft 486 kts 192°
2026-04-26 04:28 38.36427 116.63343 35001 ft 490 kts 192°
2026-04-26 04:29 38.29614 116.63128 34999 ft 494 kts 181°
2026-04-26 04:29 38.22787 116.64679 34991 ft 504 kts 169°
2026-04-26 04:30 38.16108 116.67286 35000 ft 505 kts 168°
2026-04-26 04:30 38.09427 116.69801 35013 ft 505 kts 169°
2026-04-26 04:31 38.02682 116.72354 34986 ft 507 kts 168°
2026-04-26 04:31 37.95928 116.74942 34999 ft 507 kts 168°
2026-04-26 04:32 37.89160 116.77528 34993 ft 508 kts 168°
2026-04-26 04:32 37.82392 116.80102 34996 ft 508 kts 168°
2026-04-26 04:33 37.75612 116.82673 34993 ft 509 kts 168°
2026-04-26 04:33 37.68833 116.85239 34995 ft 509 kts 168°
2026-04-26 04:34 37.62045 116.87804 34992 ft 509 kts 168°
2026-04-26 04:34 37.55253 116.90366 34994 ft 510 kts 168°
2026-04-26 04:35 37.48453 116.92926 34995 ft 510 kts 168°
2026-04-26 04:35 37.41646 116.95484 34990 ft 511 kts 168°
2026-04-26 04:36 37.34832 116.98040 34992 ft 511 kts 168°
2026-04-26 04:36 37.28036 117.00676 34988 ft 514 kts 165°
2026-04-26 04:37 37.21386 117.03858 34997 ft 515 kts 163°
2026-04-26 04:37 37.14681 117.07027 34992 ft 515 kts 164°
2026-04-26 04:38 37.07955 117.10139 34997 ft 515 kts 164°
2026-04-26 04:38 37.01228 117.13253 34997 ft 516 kts 164°
2026-04-26 04:39 36.94495 117.16376 34996 ft 516 kts 164°
2026-04-26 04:39 36.87754 117.19455 35000 ft 514 kts 167°
2026-04-26 04:40 36.80832 117.21300 34999 ft 505 kts 179°
2026-04-26 04:40 36.73871 117.21651 35009 ft 498 kts 187°
2026-04-26 04:41 36.66929 117.21511 35006 ft 499 kts 187°
2026-04-26 04:41 36.59968 117.21422 35014 ft 501 kts 186°
2026-04-26 04:42 36.52984 117.21377 35013 ft 502 kts 186°
2026-04-26 04:42 36.45994 117.21347 35016 ft 504 kts 185°
2026-04-26 04:43 36.38956 117.22367 35017 ft 514 kts 173°
2026-04-26 04:43 36.32035 117.24813 35022 ft 519 kts 167°
2026-04-26 04:44 36.25146 117.27483 35027 ft 518 kts 167°
2026-04-26 04:44 36.18256 117.30080 35023 ft 518 kts 168°
2026-04-26 04:45 36.11351 117.32637 35020 ft 517 kts 168°
2026-04-26 04:45 36.04453 117.35188 35020 ft 518 kts 168°
2026-04-26 04:46 35.97553 117.37744 35015 ft 518 kts 168°
2026-04-26 04:46 35.90663 117.40324 35018 ft 518 kts 167°
2026-04-26 04:47 35.83764 117.42914 35025 ft 518 kts 168°
2026-04-26 04:47 35.76909 117.45478 35021 ft 519 kts 168°
2026-04-26 04:48 35.66536 117.49343 35019 ft 520 kts 168°
2026-04-26 04:48 35.59615 117.51917 35018 ft 520 kts 168°
2026-04-26 04:49 35.52681 117.54491 35023 ft 520 kts 168°
2026-04-26 04:49 35.45749 117.57060 35019 ft 521 kts 168°
2026-04-26 04:50 35.39986 117.59192 35022 ft 521 kts 168°
2026-04-26 04:50 35.33000 117.61772 35026 ft 521 kts 168°
2026-04-26 04:51 35.26056 117.64332 35023 ft 522 kts 168°
2026-04-26 04:51 35.19098 117.66893 35030 ft 522 kts 168°
2026-04-26 04:52 35.12183 117.69435 35034 ft 523 kts 168°
2026-04-26 04:52 35.05210 117.71991 35019 ft 523 kts 168°
2026-04-26 04:53 34.98233 117.74533 35028 ft 523 kts 168°
2026-04-26 04:53 34.91247 117.77074 35029 ft 524 kts 168°
2026-04-26 04:54 34.84269 117.79610 35024 ft 524 kts 168°
2026-04-26 04:54 34.77282 117.82103 35030 ft 523 kts 168°
2026-04-26 04:55 34.70293 117.84610 35032 ft 524 kts 168°
2026-04-26 04:55 34.63307 117.87121 35033 ft 524 kts 168°
2026-04-26 04:56 34.56310 117.89629 35031 ft 524 kts 168°
2026-04-26 04:56 34.49321 117.92129 35036 ft 524 kts 168°
2026-04-26 04:57 34.42323 117.94627 35037 ft 524 kts 168°
2026-04-26 04:57 34.35333 117.97119 35039 ft 524 kts 168°
2026-04-26 04:58 34.28336 117.99609 35037 ft 524 kts 168°
2026-04-26 04:58 34.21357 118.02138 35039 ft 524 kts 167°
2026-04-26 04:59 34.14381 118.04708 35040 ft 524 kts 167°
2026-04-26 04:59 34.07417 118.07259 35040 ft 523 kts 167°
2026-04-26 05:00 34.00491 118.09785 35041 ft 523 kts 167°
2026-04-26 05:00 33.93529 118.12330 35038 ft 523 kts 167°
2026-04-26 05:01 33.86557 118.14880 35041 ft 523 kts 167°
2026-04-26 05:01 33.79596 118.17420 35042 ft 523 kts 167°
2026-04-26 05:02 33.72632 118.19958 35044 ft 523 kts 167°
2026-04-26 05:02 33.65670 118.22493 35047 ft 523 kts 167°
2026-04-26 05:03 33.58714 118.25022 35046 ft 523 kts 167°
2026-04-26 05:03 33.51751 118.27549 35048 ft 523 kts 167°
2026-04-26 05:04 33.44834 118.30055 35042 ft 523 kts 167°
2026-04-26 05:04 33.37833 118.32587 35051 ft 523 kts 167°
2026-04-26 05:05 33.30909 118.35087 35053 ft 523 kts 167°
2026-04-26 05:05 33.23945 118.37599 35051 ft 523 kts 167°
2026-04-26 05:06 33.16985 118.40099 35047 ft 523 kts 167°
2026-04-26 05:06 33.10019 118.42591 35060 ft 522 kts 167°
2026-04-26 05:07 33.03054 118.45079 35051 ft 522 kts 167°
2026-04-26 05:07 32.96105 118.47559 35060 ft 522 kts 167°
2026-04-26 05:08 32.89141 118.50041 35053 ft 521 kts 167°
2026-04-26 05:08 32.82197 118.52512 35053 ft 521 kts 167°
2026-04-26 05:09 32.78730 118.53744 35383 ft 520 kts 167°
2026-04-26 05:09 32.75297 118.54964 35253 ft 506 kts 166°
2026-04-26 05:09 32.71990 118.56141 35146 ft 489 kts 166°
2026-04-26 05:09 32.68780 118.57280 35071 ft 474 kts 166°
2026-04-26 05:10 32.62611 118.59865 35047 ft 476 kts 161°
2026-04-26 05:10 32.56335 118.62764 35049 ft 489 kts 161°
2026-04-26 05:11 32.49989 118.65693 35039 ft 489 kts 161°
2026-04-26 05:11 32.43651 118.68590 35044 ft 488 kts 161°
2026-04-26 05:12 32.37314 118.71472 35035 ft 487 kts 162°
2026-04-26 05:12 32.30987 118.74343 35042 ft 486 kts 162°
2026-04-26 05:13 32.24671 118.77205 35036 ft 486 kts 162°
2026-04-26 05:13 32.18350 118.80066 35042 ft 487 kts 162°
2026-04-26 05:14 32.12020 118.82928 35038 ft 487 kts 162°
2026-04-26 05:14 32.05695 118.85783 35045 ft 488 kts 162°
2026-04-26 05:15 31.99371 118.88634 35059 ft 489 kts 162°
2026-04-26 05:15 31.92942 118.91526 34437 ft 500 kts 162°
2026-04-26 05:16 31.89693 118.92987 33970 ft 497 kts 162°
2026-04-26 05:16 31.86479 118.94433 33381 ft 491 kts 162°
2026-04-26 05:16 31.83315 118.95856 32858 ft 484 kts 162°
2026-04-26 05:16 31.80187 118.97258 32356 ft 478 kts 162°
2026-04-26 05:17 31.77096 118.98634 31894 ft 472 kts 162°
2026-04-26 05:17 31.74081 118.99971 31430 ft 467 kts 162°
2026-04-26 05:17 31.71015 119.01330 30954 ft 462 kts 162°
2026-04-26 05:17 31.68019 119.02660 30487 ft 457 kts 162°
2026-04-26 05:18 31.65095 119.03941 30040 ft 452 kts 164°
2026-04-26 05:18 31.62101 119.04990 29505 ft 446 kts 168°
2026-04-26 05:18 31.59140 119.05986 29038 ft 442 kts 163°
2026-04-26 05:18 31.56278 119.07406 28566 ft 439 kts 156°
2026-04-26 05:19 31.53664 119.09134 28122 ft 436 kts 149°
2026-04-26 05:19 31.51213 119.11216 27670 ft 434 kts 145°
2026-04-26 05:19 31.48831 119.13365 27212 ft 430 kts 145°
2026-04-26 05:19 31.46507 119.15430 26779 ft 426 kts 146°
2026-04-26 05:20 31.44405 119.17277 26389 ft 423 kts 146°
2026-04-26 05:20 31.42058 119.19328 25964 ft 419 kts 146°
2026-04-26 05:20 31.39725 119.21362 25536 ft 416 kts 146°
2026-04-26 05:20 31.37408 119.23383 25107 ft 414 kts 146°
2026-04-26 05:21 31.35108 119.25386 24682 ft 411 kts 146°
2026-04-26 05:21 31.32818 119.27382 24273 ft 409 kts 146°
2026-04-26 05:21 31.30541 119.29366 23847 ft 408 kts 146°
2026-04-26 05:21 31.28269 119.31345 23377 ft 407 kts 146°
2026-04-26 05:22 31.26007 119.33313 22910 ft 404 kts 146°
2026-04-26 05:22 31.23762 119.35267 22480 ft 401 kts 146°
2026-04-26 05:22 31.21527 119.37211 22038 ft 398 kts 146°
2026-04-26 05:22 31.19317 119.39132 21632 ft 395 kts 146°
2026-04-26 05:23 31.17120 119.41052 21216 ft 393 kts 145°
2026-04-26 05:23 31.14940 119.42960 20799 ft 390 kts 145°
2026-04-26 05:23 31.12780 119.44849 20389 ft 388 kts 145°
2026-04-26 05:23 31.10625 119.46734 19985 ft 385 kts 145°
2026-04-26 05:24 31.08485 119.48604 19578 ft 383 kts 145°
2026-04-26 05:24 31.06357 119.50464 19170 ft 381 kts 145°
2026-04-26 05:24 31.04245 119.52309 18771 ft 380 kts 145°
2026-04-26 05:24 31.02130 119.54156 18364 ft 378 kts 145°
2026-04-26 05:25 31.00023 119.55994 17904 ft 378 kts 145°
2026-04-26 05:25 30.97922 119.57823 17450 ft 376 kts 145°
2026-04-26 05:25 30.95832 119.59645 17023 ft 374 kts 145°
2026-04-26 05:25 30.93753 119.61457 16605 ft 372 kts 145°
2026-04-26 05:26 30.91682 119.63258 16188 ft 370 kts 145°
2026-04-26 05:26 30.89624 119.65046 15785 ft 368 kts 144°
2026-04-26 05:26 30.87578 119.66826 15373 ft 367 kts 144°
2026-04-26 05:26 30.85542 119.68597 14962 ft 365 kts 144°
2026-04-26 05:27 30.83509 119.70367 14541 ft 364 kts 144°
2026-04-26 05:27 30.81481 119.72128 14137 ft 363 kts 144°
2026-04-26 05:27 30.79460 119.73878 13693 ft 362 kts 144°
2026-04-26 05:27 30.77444 119.75618 13239 ft 360 kts 144°
2026-04-26 05:28 30.75440 119.77355 12814 ft 358 kts 144°
2026-04-26 05:28 30.73473 119.79062 12390 ft 356 kts 144°
2026-04-26 05:28 30.71492 119.80779 11977 ft 354 kts 144°
2026-04-26 05:28 30.69549 119.82520 11550 ft 352 kts 143°
2026-04-26 05:29 30.67623 119.84272 11144 ft 351 kts 143°
2026-04-26 05:29 30.65708 119.86016 10736 ft 349 kts 143°
2026-04-26 05:29 30.63809 119.87718 10532 ft 339 kts 146°
2026-04-26 05:29 30.61833 119.89137 10396 ft 329 kts 152°
2026-04-26 05:30 30.59834 119.90360 10257 ft 320 kts 154°
2026-04-26 05:30 30.57877 119.91525 10126 ft 313 kts 154°
2026-04-26 05:30 30.55972 119.92678 9995 ft 304 kts 153°
2026-04-26 05:30 30.54114 119.93830 9685 ft 302 kts 153°
2026-04-26 05:31 30.52268 119.94986 9353 ft 301 kts 153°
2026-04-26 05:31 30.50432 119.96143 9048 ft 299 kts 152°
2026-04-26 05:31 30.48614 119.97292 8737 ft 298 kts 152°
2026-04-26 05:31 30.46809 119.98440 8428 ft 296 kts 152°
2026-04-26 05:32 30.45003 119.99573 8140 ft 295 kts 153°
2026-04-26 05:32 30.43217 120.00704 7954 ft 288 kts 152°
2026-04-26 05:32 30.41477 120.01812 7790 ft 282 kts 152°
2026-04-26 05:32 30.39846 120.02844 7708 ft 272 kts 153°
2026-04-26 05:33 30.38210 120.03880 7618 ft 264 kts 152°
2026-04-26 05:33 30.36628 120.04884 7539 ft 254 kts 152°
2026-04-26 05:33 30.35085 120.05857 7489 ft 254 kts 153°
2026-04-26 05:33 30.33525 120.06841 7390 ft 256 kts 153°
2026-04-26 05:34 30.31972 120.07820 7338 ft 252 kts 152°
2026-04-26 05:34 30.30445 120.08788 7276 ft 249 kts 152°
2026-04-26 05:34 30.28937 120.09742 7208 ft 246 kts 153°
2026-04-26 05:34 30.27456 120.10678 7148 ft 245 kts 153°
2026-04-26 05:35 30.25949 120.11628 7100 ft 249 kts 153°
2026-04-26 05:35 30.24417 120.12592 7040 ft 251 kts 153°
2026-04-26 05:35 30.22845 120.13519 6959 ft 247 kts 163°
2026-04-26 05:35 30.21196 120.13656 6865 ft 241 kts 196°
2026-04-26 05:36 30.19726 120.12769 6714 ft 241 kts 224°
2026-04-26 05:36 30.18683 120.11256 6521 ft 243 kts 240°
2026-04-26 05:36 30.17886 120.09543 6345 ft 241 kts 244°
2026-04-26 05:36 30.17080 120.07864 6066 ft 234 kts 230°
2026-04-26 05:37 30.15761 120.06861 5919 ft 229 kts 197°
2026-04-26 05:37 30.14176 120.06807 5647 ft 231 kts 170°
2026-04-26 05:37 30.13137 120.07172 5442 ft 232 kts 158°
2026-04-26 05:37 30.11381 120.08481 5111 ft 228 kts 128°
2026-04-26 05:38 30.10778 120.10136 4898 ft 224 kts 96°
2026-04-26 05:38 30.10943 120.11886 4746 ft 221 kts 67°
2026-04-26 05:38 30.11654 120.13458 4608 ft 221 kts 61°
2026-04-26 05:38 30.12146 120.14518 4511 ft 222 kts 62°
2026-04-26 05:39 30.12852 120.16079 4365 ft 222 kts 62°
2026-04-26 05:39 30.13570 120.17686 4232 ft 223 kts 62°
2026-04-26 05:39 30.14275 120.19274 3985 ft 227 kts 62°
2026-04-26 05:39 30.15008 120.20930 3669 ft 226 kts 62°
2026-04-26 05:40 30.15710 120.22514 3373 ft 217 kts 62°
2026-04-26 05:40 30.16368 120.24000 3122 ft 205 kts 63°
2026-04-26 05:40 30.17001 120.25430 2865 ft 194 kts 63°
2026-04-26 05:40 30.17607 120.26800 2608 ft 190 kts 63°
2026-04-26 05:41 30.18215 120.28171 2351 ft 189 kts 63°
2026-04-26 05:41 30.18789 120.29469 2096 ft 179 kts 63°
2026-04-26 05:41 30.19338 120.30708 1869 ft 168 kts 63°
2026-04-26 05:41 30.19869 120.31906 1685 ft 167 kts 63°
2026-04-26 05:42 30.20400 120.33110 1461 ft 167 kts 63°
2026-04-26 05:42 30.20918 120.34278 1220 ft 158 kts 63°
2026-04-26 05:42 30.21404 120.35379 1035 ft 153 kts 63°
2026-04-26 05:42 30.21888 120.36471 845 ft 151 kts 62°
2026-04-26 05:43 30.22365 120.37550 664 ft 149 kts 62°
2026-04-26 05:43 30.22838 120.38619 469 ft 149 kts 62°
2026-04-26 05:43 30.23310 120.39690 290 ft 150 kts 62°
2026-04-26 05:43 30.23783 120.40757 95 ft 149 kts 62°
2026-04-26 05:44 30.24240 120.41787 37 ft 131 kts 63°
2026-04-26 05:44 30.24538 120.42469 34 ft 52 kts 73°
2026-04-26 05:44 30.24558 120.42764 36 ft 19 kts 90°
2026-04-26 05:44 30.24555 120.42896 37 ft 16 kts 103°
2026-04-26 05:45 30.24476 120.42977 37 ft 16 kts 153°
2026-04-26 05:45 30.24411 120.42998 37 ft 8 kts 198°
2026-04-26 05:45 30.24376 120.42945 37 ft 9 kts 242°
2026-04-26 05:45 30.24347 120.42880 37 ft 9 kts 242°
2026-04-26 05:46 30.24312 120.42813 37 ft 10 kts 241°
2026-04-26 05:46 30.24280 120.42742 36 ft 10 kts 243°
2026-04-26 05:46 30.24249 120.42669 37 ft 10 kts 243°
2026-04-26 05:46 30.24214 120.42593 37 ft 11 kts 242°
2026-04-26 05:47 30.24179 120.42516 37 ft 11 kts 242°
2026-04-26 05:47 30.24143 120.42438 37 ft 11 kts 242°
2026-04-26 05:47 30.24108 120.42360 37 ft 11 kts 243°
2026-04-26 05:47 30.24074 120.42281 37 ft 11 kts 243°
2026-04-26 05:48 30.24039 120.42203 37 ft 10 kts 242°
2026-04-26 05:48 30.23986 120.42188 37 ft 9 kts 163°
2026-04-26 05:48 30.23932 120.42220 37 ft 9 kts 153°
2026-04-26 05:48 30.23874 120.42254 37 ft 10 kts 153°
2026-04-26 05:49 30.23821 120.42288 37 ft 6 kts 138°
2026-04-26 05:49 30.23835 120.42387 37 ft 0 kts 64°